Regional Weather Roundup
Issued by NWS Albany, NY

Home | Current Version | Previous Version | Text Only | Print | Product List | Glossary On
Versions: 1 2 3 4 5 6 7 8 9 10 11 12 13 14 15 16 17 18 19 20 21 22 23 24 25 26 27 28 29 30 31 32 33 34 35 36 37 38 39 40 41 42 43 44 45 46 47 48 49 50
000
ASUS41 KALY 232310
RWRALY

NEW YORK STATE HOURLY WEATHER ROUNDUP
NATIONAL WEATHER SERVICE ALBANY NY
700 PM EDT TUE SEP 23 2014

NOTE: "FAIR" INDICATES FEW OR NO CLOUDS BELOW 12,000 FEET WITH NO
SIGNIFICANT WEATHER AND/OR NO OBSTRUCTIONS TO VISIBILITY.

NYZ032-033-038>043-046>054-057>066-NYZ062>081-240000-
EAST


CITY           SKY/WX    TMP DP  RH WIND       PRES   REMARKS
ALBANY         MOCLDY    65  48  54 NW8       30.34R
GLENS FALLS    CLOUDY    60  54  80 CALM      30.33R
POUGHKEEPSIE   CLEAR     64  49  57 CALM      30.31R
NEWBURGH       CLEAR     70  48  46 CALM      30.32
MONTGOMERY     CLEAR     64  50  60 W3        30.31R
WHITE PLAINS   CLEAR     60  49  66 CALM      30.32R
ISLIP          MOCLDY    63  49  60 SW3       30.31S
NEW YORK CITY  PTCLDY    68  48  48 S10       30.31R
CENTRAL PARK   CLEAR     68  43  40 CALM      30.34R
$$

NYZ005>009-017-018-044>046-055-056-240000-
CENTRAL


CITY           SKY/WX    TMP DP  RH WIND       PRES   REMARKS
FULTON         MOCLDY    63  54  72 CALM      30.34R
SYRACUSE       PTCLDY    66  49  54 W5        30.34R
ROME           CLOUDY    64  50  60 SW5       30.36R
ELMIRA         CLEAR     60  53  77 NE5       30.34R
BINGHAMTON     CLEAR     64  47  53 N3        30.36R
MONTICELLO     CLEAR     61  48  63 W6        30.36R
$$

NYZ026>034-041>043-240000-
NORTH


CITY           SKY/WX    TMP DP  RH WIND       PRES   REMARKS
WATERTOWN      CLOUDY    62  51  67 VRB3      30.33R
FORT DRUM      NOT AVBL
MASSENA        PTCLDY    58  53  84 SW5       30.33R
SARANAC LAKE   CLOUDY    52  51  97 CALM      30.34R
PLATTSBURGH    PTCLDY    59  52  77 CALM      30.32R
$$

NYZ001>004-010>016-019>021-240000-
WEST


CITY           SKY/WX    TMP DP  RH WIND       PRES   REMARKS
NIAGARA FALLS  PTCLDY    63  51  65 SW10      30.34R
BUFFALO        PTCLDY    63  51  65 SW9       30.35R
DUNKIRK        CLEAR     61  50  67 SW6       30.36S
JAMESTOWN      CLEAR     52  48  87 N6        30.38R
WELLSVILLE     MOCLDY    62  48  60 W5        30.38R
ROCHESTER      PTCLDY    65  51  60 SW6       30.34R
PENN YAN       CLEAR     61  53  75 SE5       30.35R
$$

             KEY
       WCI = WIND CHILL INDEX
       VSB = VISIBILITY
       HX  = HEAT INDEX
$$


USA.gov is the U.S. government's official web portal to all federal, state and local government web resources and services.